Regional Weather Roundup
Issued by NWS Newport/Morehead, NC

Current Version | Previous Version | Graphics & Text | Print | Product List | Glossary Off
Versions: 1 2 3 4 5 6 7 8 9 10 11 12 13 14 15 16 17 18 19 20 21 22 23 24 25 26 27 28 29 30 31 32 33 34 35 36 37 38 39 40 41 42 43 44 45 46 47 48 49 50

000
ASUS42 KMHX 022013
RWRMHX
WEATHER ROUNDUP FOR EASTERN NORTH CAROLINA
NATIONAL WEATHER SERVICE NEWPORT/MOREHEAD CITY NC
400 PM EDT SUN AUG 02 2015

NOTE: "FAIR" INDICATES FEW OR NO CLOUDS BELOW 12,000 FEET
WITH NO SIGNIFICANT WEATHER AND/OR OBSTRUCTIONS TO VISIBILITY

NCZ015>017-031-032-045>047-102-103-022100-
NORTH COAST

CITY           SKY/WX    TMP DP  RH WIND       PRES   REMARKS
EDENTON          N/A     93  62  35 SW8       29.91F
ELIZABETH CITY MOSUNNY   92  65  40 VRB3      29.90F
KITTY HAWK     PTCLDY    91  73  55 SE9       29.91F
MANTEO         PTSUNNY   84  73  70 S9G17     29.93S

$$

NCZ045>047-081-094-103-104-022100-
CENTRAL COAST

CITY           SKY/WX    TMP DP  RH WIND       PRES   REMARKS
FRISCO         MOSUNNY   86  76  71 SW8       29.94F
SWANQUARTER      N/A     90 N/A N/A S13       29.88S

$$

NCZ095-097-098-100-101-022100-
SOUTHERN COAST

CITY           SKY/WX    TMP DP  RH WIND       PRES   REMARKS
BEAUFORT       MOSUNNY   85  78  80 S17       29.94F
CEDAR ISLAND     N/A     88 N/A N/A S15       29.97S
JACKSONVILLE   CLOUDY    81  74  79 SW8       29.94S
PINEY ISLAND   NOT AVBL
WILMINGTON     PTSUNNY   85  73  67 SE10G18   29.94S


$$

NCZ011>013-027>030-043-044-078>080-089-090>093-098-022100-
COASTAL PLAIN

CITY           SKY/WX    TMP DP  RH WIND       PRES   REMARKS
AHOSKIE        SUNNY     88  63  44 N8        29.92F
CLINTON        SUNNY     95  61  32 N3        29.92F
ELIZABETHTOWN  SUNNY     93  56  29 CALM      29.91F
GOLDSBORO      SUNNY     94  59  30 N2        29.90F
GREENVILLE     SUNNY     95  61  31 S6        29.93F
HAVELOCK       NOT AVBL
KENANSVILLE    SUNNY     92  54  27 CALM      29.93F
KINSTON        SUNNY     93  54  26 NW6       29.92F
NEW BERN       PTSUNNY   88  72  58 S14G21    29.94R
RICHLANDS      MOSUNNY   86  66  51 S10       29.94R
ROCKY MOUNT    SUNNY     94  56  27 VRB6      29.92F
WASHINGTON     SUNNY     90  61  37 S5        29.92S
WHITEVILLE     MOSUNNY   79  70  72 S14G21    29.95R

$$

AMZ130-135-150-152-154-156-158-170-250-252-270-ANZ085-086-088-633-658-670-022100-
MARINE OBSERVATIONS

STATION/POSITION TIME  TEMP    WIND        PRES    WAVE   SWELL
                       AIR SEA DIR/SP/G            HT/PER HT/PER
                 (UTC) (F)     (DEG/KT/KT) (MB)    (FT/S) (FT/S)
CHESAPEAKE LIGHT 2000   78     180/ 14/ 15 1013.8
64 E VA BEACH    1950   82 83  170/ 14/ 16 1013.0    3/11   2/11
DUCK             1900   84 81  130/ 10/ 12 1012.5
2 E DUCK         1911      81                N/A     2/11   2/11
OREGON INLET     1900   84 78  140/  9/ 14 1013.6
13E OREGON INLT  2000      82                N/A     3/ 7   2/11
HATTERAS CG      1900   86 82  170/  8/ 12 1013.9
DIAMOND BUOY     1950   83 86  190/ 17/ 19 1013.9    3/12   2/12
CAPE LOOKOUT     2000   83     170/ 15/ 17 1013.6
BEAUFORT LAB     1900   84 83  180/ 11/ 13 1013.5
30 SE NEW RVR IN NOT AVBL
27 SE WRIGHTSVLE NOT AVBL
5 SE WRIGHTSVLE  1908   83 84  180/ 14/ 17 1014.1
225 S CAPE HAT   1950   80 81  240/  6/ 12 1016.7    6/ 8   7/ 8
41 SE CHARLESTON 1950   79 83  190/  2/  4 1013.6    3/ 6   3/ 6

$$



USA.gov is the U.S. government's official web portal to all federal, state and local government web resources and services.